PDT1014 KPWM-KBOS

Flight info

Callsign PDT1014
Flight time 0h 39m
Altitude 14000
Route OOSHN OOSHN5
Aircraft E145/M-SABDFGRW/S

Departure

Time 2026-05-08 01:13
Airport Portland International Jetport (KPWM)

Arrival

Time 2026-05-08 01:52
Airport Boston Logan International Airport (KBOS)
Time Latitude Longitude Altitude Speed Heading
2026-05-08 00:55 43.64675 -70.31171 62 ft 0 kts 16°
2026-05-08 01:05 43.64664 -70.31175 62 ft 2 kts 16°
2026-05-08 01:05 43.64650 -70.31181 62 ft 2 kts 16°
2026-05-08 01:05 43.64635 -70.31186 62 ft 2 kts 16°
2026-05-08 01:05 43.64621 -70.31192 62 ft 2 kts 16°
2026-05-08 01:06 43.64609 -70.31202 62 ft 2 kts 55°
2026-05-08 01:06 43.64603 -70.31220 63 ft 1 kts 91°
2026-05-08 01:06 43.64604 -70.31226 63 ft 0 kts 96°
2026-05-08 01:08 43.64603 -70.31218 62 ft 3 kts 96°
2026-05-08 01:08 43.64597 -70.31134 61 ft 13 kts 96°
2026-05-08 01:08 43.64588 -70.30988 58 ft 17 kts 94°
2026-05-08 01:08 43.64575 -70.30798 54 ft 22 kts 96°
2026-05-08 01:09 43.64559 -70.30566 49 ft 26 kts 96°
2026-05-08 01:09 43.64578 -70.30307 44 ft 26 kts 72°
2026-05-08 01:09 43.64576 -70.30106 40 ft 19 kts 96°
2026-05-08 01:09 43.64571 -70.30016 38 ft 21 kts 94°
2026-05-08 01:10 43.64532 -70.29920 36 ft 12 kts 175°
2026-05-08 01:10 43.64504 -70.29919 36 ft 0 kts 179°
2026-05-08 01:11 43.64498 -70.29919 36 ft 4 kts 179°
2026-05-08 01:12 43.64434 -70.29917 36 ft 11 kts 186°
2026-05-08 01:12 43.64411 -70.30035 38 ft 28 kts 276°
2026-05-08 01:12 43.64455 -70.30657 51 ft 99 kts 276°
2026-05-08 01:12 43.64533 -70.31834 204 ft 136 kts 277°
2026-05-08 01:13 43.64609 -70.33179 685 ft 149 kts 276°
2026-05-08 01:13 43.64605 -70.34625 1330 ft 159 kts 259°
2026-05-08 01:13 43.64129 -70.35972 2121 ft 163 kts 246°
2026-05-08 01:13 43.63495 -70.37550 2184 ft 209 kts 246°
2026-05-08 01:14 43.62749 -70.39471 2354 ft 243 kts 246°
2026-05-08 01:14 43.61948 -70.41567 3132 ft 245 kts 246°
2026-05-08 01:14 43.61171 -70.43601 3864 ft 244 kts 246°
2026-05-08 01:14 43.60378 -70.45706 4009 ft 247 kts 246°
2026-05-08 01:15 43.59596 -70.47801 4013 ft 242 kts 246°
2026-05-08 01:15 43.58823 -70.49857 4010 ft 241 kts 246°
2026-05-08 01:15 43.57955 -70.51829 4003 ft 243 kts 232°
2026-05-08 01:15 43.56710 -70.53463 4174 ft 254 kts 227°
2026-05-08 01:16 43.55433 -70.55126 4734 ft 257 kts 227°
2026-05-08 01:16 43.54115 -70.56796 5177 ft 265 kts 221°
2026-05-08 01:16 43.52392 -70.57802 5759 ft 271 kts 199°
2026-05-08 01:16 43.50588 -70.58473 6299 ft 271 kts 199°
2026-05-08 01:17 43.48763 -70.59133 6805 ft 273 kts 199°
2026-05-08 01:17 43.46924 -70.59793 7319 ft 275 kts 199°
2026-05-08 01:17 43.45081 -70.60452 7811 ft 277 kts 199°
2026-05-08 01:17 43.43169 -70.60950 8260 ft 285 kts 186°
2026-05-08 01:18 43.41243 -70.60300 8731 ft 295 kts 157°
2026-05-08 01:18 43.39522 -70.58702 9173 ft 299 kts 150°
2026-05-08 01:18 43.37778 -70.57140 9473 ft 308 kts 151°
2026-05-08 01:18 43.35926 -70.55503 9822 ft 324 kts 151°
2026-05-08 01:19 43.33996 -70.53802 10508 ft 329 kts 151°
2026-05-08 01:19 43.32067 -70.52104 11142 ft 333 kts 152°
2026-05-08 01:19 43.30123 -70.50394 11890 ft 333 kts 152°
2026-05-08 01:19 43.28395 -70.48257 12448 ft 347 kts 131°
2026-05-08 01:20 43.27379 -70.45232 13085 ft 359 kts 105°
2026-05-08 01:20 43.27288 -70.41779 13569 ft 370 kts 81°
2026-05-08 01:20 43.27885 -70.38350 14038 ft 374 kts 76°
2026-05-08 01:20 43.28527 -70.34862 14096 ft 385 kts 76°
2026-05-08 01:21 43.29196 -70.31268 14100 ft 396 kts 76°
2026-05-08 01:21 43.29884 -70.27580 14103 ft 405 kts 75°
2026-05-08 01:21 43.30597 -70.23787 14112 ft 414 kts 75°
2026-05-08 01:21 43.31320 -70.19920 14094 ft 421 kts 76°
2026-05-08 01:22 43.32056 -70.16022 14104 ft 427 kts 75°
2026-05-08 01:22 43.32805 -70.12057 14104 ft 429 kts 75°
2026-05-08 01:22 43.33545 -70.08131 14098 ft 424 kts 75°
2026-05-08 01:22 43.34152 -70.04246 14071 ft 420 kts 86°
2026-05-08 01:23 43.33897 -70.00278 14088 ft 412 kts 108°
2026-05-08 01:23 43.32740 -69.96774 14100 ft 402 kts 125°
2026-05-08 01:23 43.31303 -69.93470 14088 ft 402 kts 125°
2026-05-08 01:23 43.29892 -69.90215 14095 ft 402 kts 126°
2026-05-08 01:24 43.28448 -69.86887 14084 ft 402 kts 125°
2026-05-08 01:24 43.27023 -69.83617 14089 ft 402 kts 125°
2026-05-08 01:24 43.25588 -69.80322 14092 ft 404 kts 125°
2026-05-08 01:24 43.24145 -69.77004 14085 ft 405 kts 125°
2026-05-08 01:25 43.22694 -69.73695 14100 ft 406 kts 125°
2026-05-08 01:25 43.21253 -69.70396 14087 ft 407 kts 125°
2026-05-08 01:25 43.19792 -69.67052 14080 ft 408 kts 125°
2026-05-08 01:25 43.18333 -69.63715 14086 ft 408 kts 125°
2026-05-08 01:26 43.16888 -69.60384 14091 ft 410 kts 125°
2026-05-08 01:26 43.15433 -69.57039 14083 ft 411 kts 125°
2026-05-08 01:26 43.13967 -69.53669 14088 ft 411 kts 125°
2026-05-08 01:26 43.12503 -69.50321 14085 ft 412 kts 125°
2026-05-08 01:27 43.11033 -69.46966 14031 ft 414 kts 125°
2026-05-08 01:27 43.09573 -69.43604 14033 ft 414 kts 125°
2026-05-08 01:27 43.08092 -69.40205 14035 ft 415 kts 125°
2026-05-08 01:27 43.06620 -69.36809 14033 ft 415 kts 125°
2026-05-08 01:28 43.05151 -69.33446 14028 ft 415 kts 126°
2026-05-08 01:28 43.03667 -69.30045 14027 ft 415 kts 126°
2026-05-08 01:28 43.02208 -69.26682 14028 ft 415 kts 126°
2026-05-08 01:28 43.00742 -69.23315 14029 ft 415 kts 125°
2026-05-08 01:29 42.99267 -69.19899 14028 ft 414 kts 126°
2026-05-08 01:29 42.97526 -69.16931 14020 ft 401 kts 144°
2026-05-08 01:29 42.95200 -69.15005 14021 ft 384 kts 166°
2026-05-08 01:29 42.92639 -69.14397 14026 ft 366 kts 188°
2026-05-08 01:30 42.90236 -69.15117 14026 ft 350 kts 209°
2026-05-08 01:30 42.88260 -69.16999 14041 ft 341 kts 226°
2026-05-08 01:30 42.86523 -69.19184 14035 ft 342 kts 226°
2026-05-08 01:30 42.84869 -69.21456 14033 ft 339 kts 235°
2026-05-08 01:31 42.83689 -69.24236 14048 ft 336 kts 246°
2026-05-08 01:31 42.82812 -69.27163 14048 ft 336 kts 250°
2026-05-08 01:31 42.82045 -69.30133 14049 ft 336 kts 252°
2026-05-08 01:31 42.81308 -69.33151 14050 ft 336 kts 252°
2026-05-08 01:32 42.80602 -69.36168 14047 ft 336 kts 253°
2026-05-08 01:32 42.79899 -69.39204 14045 ft 337 kts 253°
2026-05-08 01:32 42.79196 -69.42242 14045 ft 337 kts 253°
2026-05-08 01:32 42.78492 -69.45281 14046 ft 337 kts 253°
2026-05-08 01:33 42.77788 -69.48317 14041 ft 337 kts 253°
2026-05-08 01:33 42.77082 -69.51360 14043 ft 337 kts 253°
2026-05-08 01:33 42.76383 -69.54369 14041 ft 337 kts 253°
2026-05-08 01:33 42.75677 -69.57400 14047 ft 337 kts 253°
2026-05-08 01:34 42.74972 -69.60426 14043 ft 337 kts 253°
2026-05-08 01:34 42.74263 -69.63464 14044 ft 337 kts 253°
2026-05-08 01:34 42.73552 -69.66510 14050 ft 337 kts 252°
2026-05-08 01:34 42.72841 -69.69547 14050 ft 337 kts 253°
2026-05-08 01:35 42.72140 -69.72544 14053 ft 338 kts 252°
2026-05-08 01:35 42.71428 -69.75579 14050 ft 338 kts 252°
2026-05-08 01:35 42.70705 -69.78654 14056 ft 338 kts 252°
2026-05-08 01:35 42.69997 -69.81664 14053 ft 339 kts 252°
2026-05-08 01:36 42.69276 -69.84727 14052 ft 339 kts 252°
2026-05-08 01:36 42.68557 -69.87777 14052 ft 339 kts 252°
2026-05-08 01:36 42.67841 -69.90806 14059 ft 339 kts 252°
2026-05-08 01:36 42.67119 -69.93861 14054 ft 340 kts 252°
2026-05-08 01:37 42.66405 -69.96874 14054 ft 339 kts 252°
2026-05-08 01:37 42.65679 -69.99937 14059 ft 340 kts 252°
2026-05-08 01:37 42.64955 -70.02979 13861 ft 335 kts 253°
2026-05-08 01:37 42.64260 -70.05907 13507 ft 314 kts 253°
2026-05-08 01:38 42.63614 -70.08616 13131 ft 298 kts 253°
2026-05-08 01:38 42.62991 -70.11235 12742 ft 285 kts 253°
2026-05-08 01:38 42.62393 -70.13738 12358 ft 275 kts 253°
2026-05-08 01:38 42.61817 -70.16148 11984 ft 266 kts 253°
2026-05-08 01:39 42.61250 -70.18520 11592 ft 259 kts 253°
2026-05-08 01:39 42.60698 -70.20827 10968 ft 263 kts 253°
2026-05-08 01:39 42.59766 -70.22984 10263 ft 273 kts 228°
2026-05-08 01:39 42.58148 -70.24297 9680 ft 281 kts 205°
2026-05-08 01:40 42.56314 -70.25233 9189 ft 279 kts 205°
2026-05-08 01:40 42.54533 -70.26177 8697 ft 277 kts 206°
2026-05-08 01:40 42.52754 -70.27129 8193 ft 276 kts 206°
2026-05-08 01:40 42.50961 -70.28095 7685 ft 275 kts 205°
2026-05-08 01:41 42.49249 -70.29086 7456 ft 262 kts 214°
2026-05-08 01:41 42.48008 -70.30799 7033 ft 252 kts 245°
2026-05-08 01:41 42.47489 -70.33006 6553 ft 250 kts 259°
2026-05-08 01:41 42.47079 -70.35289 6143 ft 248 kts 259°
2026-05-08 01:42 42.46687 -70.37502 6061 ft 234 kts 259°
2026-05-08 01:42 42.46340 -70.39580 6049 ft 219 kts 260°
2026-05-08 01:42 42.46014 -70.41528 6053 ft 204 kts 261°
2026-05-08 01:42 42.45708 -70.43340 6047 ft 192 kts 260°
2026-05-08 01:43 42.45417 -70.45044 6049 ft 179 kts 261°
2026-05-08 01:43 42.45144 -70.46630 6047 ft 167 kts 261°
2026-05-08 01:43 42.44891 -70.48099 6048 ft 155 kts 261°
2026-05-08 01:43 42.44655 -70.49474 6043 ft 142 kts 261°
2026-05-08 01:44 42.44425 -70.50832 6097 ft 168 kts 261°
2026-05-08 01:44 42.44139 -70.52519 6092 ft 196 kts 260°
2026-05-08 01:44 42.43824 -70.54351 6070 ft 205 kts 259°
2026-05-08 01:44 42.43495 -70.56253 6076 ft 212 kts 259°
2026-05-08 01:45 42.43155 -70.58212 6065 ft 215 kts 259°
2026-05-08 01:45 42.42810 -70.60195 5892 ft 224 kts 259°
2026-05-08 01:45 42.42447 -70.62289 5643 ft 229 kts 259°
2026-05-08 01:45 42.42082 -70.64383 5331 ft 230 kts 260°
2026-05-08 01:46 42.41711 -70.66473 5017 ft 231 kts 259°
2026-05-08 01:46 42.41330 -70.68603 4697 ft 232 kts 259°
2026-05-08 01:46 42.40959 -70.70710 4384 ft 231 kts 259°
2026-05-08 01:46 42.40589 -70.72823 4043 ft 230 kts 260°
2026-05-08 01:47 42.40226 -70.74893 3687 ft 221 kts 261°
2026-05-08 01:47 42.39885 -70.76839 3382 ft 208 kts 261°
2026-05-08 01:47 42.39561 -70.78690 3071 ft 197 kts 261°
2026-05-08 01:48 42.38971 -70.82053 2585 ft 174 kts 262°
2026-05-08 01:48 42.38694 -70.83637 2325 ft 171 kts 262°
2026-05-08 01:48 42.38429 -70.85133 2117 ft 151 kts 262°
2026-05-08 01:48 42.38198 -70.86444 1892 ft 138 kts 264°
2026-05-08 01:49 42.37987 -70.87638 1710 ft 126 kts 264°
2026-05-08 01:49 42.37794 -70.88737 1527 ft 113 kts 264°
2026-05-08 01:49 42.37616 -70.89759 1376 ft 113 kts 264°
2026-05-08 01:49 42.37468 -70.90604 1265 ft 116 kts 263°
2026-05-08 01:50 42.37276 -70.91695 1111 ft 121 kts 262°
2026-05-08 01:50 42.37077 -70.92816 942 ft 122 kts 262°
2026-05-08 01:50 42.36882 -70.93918 773 ft 120 kts 261°
2026-05-08 01:50 42.36689 -70.94992 607 ft 116 kts 260°
2026-05-08 01:51 42.36494 -70.96056 452 ft 117 kts 261°
2026-05-08 01:51 42.36315 -70.97130 295 ft 117 kts 259°
2026-05-08 01:51 42.36115 -70.98198 140 ft 118 kts 259°
2026-05-08 01:51 42.35923 -70.99268 16 ft 111 kts 258°
2026-05-08 01:52 42.35774 -71.00146 14 ft 77 kts 259°
2026-05-08 01:52 42.35693 -71.00636 16 ft 40 kts 256°
2026-05-08 01:52 42.35635 -71.00977 18 ft 31 kts 264°
2026-05-08 01:52 42.35701 -71.01226 19 ft 25 kts 310°
2026-05-08 01:53 42.35777 -71.01438 19 ft 25 kts 289°
2026-05-08 01:53 42.35828 -71.01668 19 ft 25 kts 282°
2026-05-08 01:53 42.35871 -71.01895 18 ft 25 kts 301°
2026-05-08 01:53 42.35964 -71.02098 17 ft 25 kts 301°
2026-05-08 01:54 42.36035 -71.02264 16 ft 16 kts 303°
2026-05-08 01:54 42.36139 -71.02302 16 ft 18 kts 23°
2026-05-08 01:54 42.36241 -71.02242 16 ft 12 kts 32°
2026-05-08 01:54 42.36236 -71.02174 16 ft 9 kts 128°
2026-05-08 01:55 42.36212 -71.02148 16 ft 0 kts 169°